Tracking 18624 objects as of 30-April-2017
HD Live streaming from Space Station
objects crossing your sky now

BEESAT

Track BEESAT now!
10-day predictions
BEESAT is classified as:


NORAD ID: 35933
Int'l Code: 2009-051C
Perigee: 708.0 km
Apogee: 717.8 km
Inclination: 98.5 °
Period: 98.9 minutes
Semi major axis: 7083 km
RCS: 0.033 m2 (small)
Launch date: September 23, 2009
Source: Germany (GER)
Launch site: SIRHARIKOTA (SRI)
Uplink (MHz):
Downlink (MHz): 436.000
Beacon (MHz): 436.000
Mode: 9600/4800bps GMSK
Call sign: DP0BEE
Status: Active


BEESAT is a a cubesat satellite built by student teams to test new attitude control systems.
Your satellite tracking list
Your tracking list is empty





NASA's NSSDC Master Catalog

Two Line Element Set (TLE):
1 35933U 09051C   17118.37222576 +.00000195 +00000-0 +55080-4 0  9997
2 35933 098.4913 257.2869 0006897 064.9920 295.1992 14.56116597403096
Source of the keplerian elements: Caltech